Tracking 19817 objects as of 17-Aug-2019
HD Live streaming from Space Station
objects crossing your sky now

COSMOS 2251 DEB

Track COSMOS 2251 DEB now!
10-day predictions


NORAD ID: 34755
Int'l Code: 1993-036ZZ
Perigee: 777.5 km
Apogee: 1,406.9 km
Inclination: 73.9 °
Period: 106.9 minutes
Semi major axis: 7463 km
RCS: 0.0048 m2 (small)
Launch date: June 16, 1993
Source: Commonwealth of Independent States (former USSR) (CIS)
Launch site: PLESETSK MISSILE AND SPACE COMPLEX (PKMTR)

Note: This is SATELLITE DEBRIS
aabbcc
Your satellite tracking list
Your tracking list is empty




NASA's NSSDC Master Catalog

Two Line Element Set (TLE):
1 34755U 93036ZZ  19227.42911226 -.00000052 +00000-0 -32738-4 0  9999
2 34755 073.9277 026.6414 0421662 114.7195 279.5582 13.46539252513853
Source of the keplerian elements: AFSPC